Home   Weather   Ashdod   Past weeks

Flag for Israel Past Weather in Ashdod, Israel — Yesterday and Last 2 Weeks

Now
81 °F

Scattered clouds.


Feels Like: 81 °F
Forecast: 74 / 81 °F
Wind: 8 mph from Northwest

Location: Ben Gurion International Airport

Current Time: Sep 26, 2016 at 12:01:01 PM

Latest Report: Sep 26, 2016 at 11:20 AM


Visibility: N/A

Pressure: 29.89 "Hg

Humidity: 48%

Dew Point: 59 °F

Location of AshdodLocation

Past Weather in Ashdod — Graph

°F

Ashdod Temperature Yesterday

Maximum temperature yesterday: 90 °F (at 11:50 AM)
Minimum temperature yesterday: 68 °F (at 6:50 AM)
Average temperature yesterday: 79 °F

High & Low Weather Summary for the Past Weeks

 TemperatureHumidityPressure
High90 °F (Sep 11, 11:50 AM)83% (Sep 18, 6:20 AM)29.98 "Hg (Sep 18, 6:20 AM)
Low68 °F (Sep 25, 6:50 AM)24% (Sep 25, 11:50 AM)29.74 "Hg (Sep 25, 1:20 PM)
Average81 °F62%29.88 "Hg
* Reported Sep 11 10:20 AM — Sep 26 10:50 AM, Ashdod, Weather by CustomWeather, © 2016

Note: Actual official high and low records may vary slightly from our data, if they occured in-between our weather recording intervals... More about our weather records

Advertising

Ashdod Weather History for the Previous 24 Hours

Scroll right to see more
 ConditionsComfort  
Time TempWeatherWind HumidityBarometerVisibility
10:50 AM
Mon, Sep 26
81 °FScattered clouds.8 mph48%29.89 "HgN/A
10:20 AM81 °FScattered clouds.9 mph48%29.89 "HgN/A
9:50 AM81 °FScattered clouds.2 mph48%29.89 "HgN/A
9:20 AM81 °FPassing clouds.2 mph48%29.89 "HgN/A
8:50 AM79 °FPassing clouds.2 mph51%29.89 "HgN/A
8:20 AM75 °FSunny.5 mph57%29.89 "Hg10 mi
7:50 AM73 °FPassing clouds.3 mph61%29.89 "HgN/A
7:20 AM72 °FPassing clouds.3 mph65%29.86 "HgN/A
6:50 AM70 °FPassing clouds.3 mph69%29.86 "HgN/A
6:20 AM70 °FPassing clouds.3 mph69%29.86 "HgN/A
5:50 AM72 °FPassing clouds.2 mph65%29.86 "HgN/A
5:20 AM72 °FPassing clouds.6 mph65%29.86 "HgN/A
4:50 AM72 °FPassing clouds.5 mph65%29.86 "HgN/A
4:20 AM72 °FPassing clouds.3 mph65%29.86 "HgN/A
3:50 AM72 °FPassing clouds.2 mph65%29.86 "HgN/A
3:20 AM72 °FClear.5 mph65%29.86 "Hg10 mi
2:50 AM73 °FClear.2 mph61%29.83 "Hg10 mi
2:20 AM73 °FClear.2 mph61%29.83 "Hg10 mi
1:50 AM73 °FClear.1 mph61%29.86 "Hg10 mi
1:20 AM73 °FClear.1 mph61%29.86 "Hg10 mi
12:50 AM75 °FClear.2 mph57%29.86 "Hg10 mi
12:20 AM75 °FClear.1 mph57%29.86 "Hg10 mi
11:50 PM
Sun, Sep 25
77 °FClear.3 mph54%29.86 "Hg10 mi
11:20 PM77 °FClear.5 mph54%29.86 "Hg10 mi
10:50 PM79 °FClear.7 mph51%29.86 "Hg10 mi
10:20 PM79 °FClear.7 mph54%29.86 "Hg10 mi
9:50 PM79 °FClear.7 mph54%29.83 "Hg10 mi
9:20 PM79 °FClear.7 mph54%29.83 "Hg10 mi
8:50 PM79 °FClear.8 mph54%29.83 "Hg10 mi
8:20 PM79 °FClear.9 mph54%29.83 "Hg10 mi
7:50 PM79 °FClear.9 mph58%29.80 "Hg10 mi
7:20 PM81 °FClear.10 mph54%29.77 "Hg10 mi
6:50 PM81 °FClear.12 mph54%29.77 "Hg10 mi
6:20 PM81 °FSunny.14 mph54%29.77 "Hg10 mi
5:50 PM82 °FSunny.13 mph51%29.77 "Hg10 mi
5:20 PM82 °FSunny.16 mph51%29.77 "Hg10 mi
4:50 PM84 °FSunny.17 mph48%29.77 "Hg10 mi
4:20 PM84 °FSunny.17 mph48%29.77 "Hg10 mi
3:50 PM84 °FSunny.17 mph45%29.74 "Hg10 mi
3:20 PM86 °FSunny.20 mph43%29.74 "Hg10 mi
2:50 PM86 °FSunny.18 mph40%29.74 "Hg10 mi
2:20 PM86 °FSunny.18 mph40%29.74 "Hg10 mi
1:50 PM86 °FSunny.18 mph38%29.74 "Hg10 mi
1:20 PM88 °FSunny.17 mph38%29.74 "Hg10 mi
12:50 PM86 °FSunny.15 mph38%29.77 "Hg10 mi
12:20 PM88 °FSunny.15 mph27%29.77 "Hg10 mi
Weather by CustomWeather, © 2016

See weather overviewHow to use our weather pages